CAPE
2014 2310 2697 3093 3157 3141 3084 2848 2790 2702 2544 2406 2267 2166 2094 1955 1886 1849 1844 1886 1928 1785 1648 1674 1666 1511 1410 1570 1555 1474 1310 1108 1022 954 1060 1072 810 574 366 301 297 266 220 251 148 136 161 154 197 186 198 248 543 569 702 814 904 973 897 964 1136 1466 1372 1268 1083 1137 1106 1173 1436 1391 1158 1058 1216 1184 1256 1249 1359 1424 1362 1344 1285 1127 1150 1238 1406
2146 2325 2837 2922 2980 2981 2971 2779 2676 2615 2521 2432 2268 2197 2092 1960 1912 1863 1897 1871 1976 1810 1719 1677 1637 1493 1490 1545 1473 1346 1377 1287 1180 1147 1074 1082 801 455 350 295 322 313 259 220 241 292 248 151 194 184 210 293 276 269 586 710 801 939 1073 1238 1307 1637 1735 1753 1731 1647 1565 1575 1564 1278 1099 1179 1030 1180 1206 1216 1224 1275 1239 1174 1131 928 1002 1218 1453
2292 2555 2759 2825 2928 2905 2749 2692 2617 2600 2535 2421 2289 2184 2095 2031 1933 1935 1988 2030 2040 1846 1769 1709 1626 1547 1515 1528 1435 1389 1342 1351 1308 1220 1152 898 597 447 305 348 400 396 434 375 298 341 282 250 158 155 233 347 303 327 526 606 660 782 1090 1268 1345 1474 1788 1946 1876 1742 1603 1488 1431 1312 1292 1230 1217 1181 1124 1186 1090 984 993 987 1096 1048 890 1048 1167
2180 2543 2685 2871 2877 2670 2650 2714 2716 2688 2462 2366 2298 2214 2124 2094 2015 2052 2045 2121 2010 1902 1838 1770 1719 1756 1729 1649 1477 1367 1437 1387 1219 1050 950 612 398 427 436 499 476 466 350 326 252 369 401 358 378 241 174 248 330 443 555 588 592 597 677 940 1113 1384 1490 1848 1916 1953 1594 1457 1270 1039 1055 799 915 1078 1114 1070 1039 921 897 847 890 1048 1127 1018 1185
2148 2521 2754 2721 2618 2584 2650 2685 2632 2641 2531 2416 2288 2251 2144 2100 2027 2175 2194 2166 2013 1887 1882 1852 1782 1724 1715 1541 1436 1493 1455 1258 1091 961 824 470 457 429 424 390 417 377 400 326 352 462 581 519 570 425 221 220 352 511 574 609 576 512 591 670 690 892 1290 1568 1696 1291 1358 1258 1094 911 734 744 750 1041 1044 1041 951 790 776 676 663 642 1126 1192 1231
2259 2578 2616 2546 2514 2563 2555 2620 2676 2595 2581 2428 2269 2273 2196 2065 2056 2124 2087 1995 1868 1847 1837 1861 1781 1749 1576 1511 1456 1546 1331 1130 1034 1092 969 664 805 524 463 363 437 344 273 426 546 576 688 750 894 806 714 335 398 460 511 584 553 550 587 562 627 631 872 1281 1309 1485 1547 1221 1200 688 733 820 854 914 1035 960 1000 911 755 485 385 305 583 731 1084
2262 2366 2455 2476 2455 2470 2518 2660 2745 2661 2524 2379 2395 2286 2173 2148 2147 2138 2050 1976 1903 1809 1742 1806 1758 1698 1573 1530 1559 1555 1280 1165 1268 1234 975 783 758 803 632 387 428 408 403 742 736 841 980 1193 1207 1004 932 740 357 371 408 447 571 592 584 559 530 747 611 898 819 1117 1152 1069 574 661 726 829 938 1062 1252 1140 1045 821 724 688 611 505 426 524 926
1948 2161 2315 2439 2463 2554 2645 2784 2705 2626 2466 2442 2386 2286 2244 2231 2167 2209 2076 1970 1878 1766 1714 1698 1658 1636 1584 1493 1360 1322 1162 1402 1387 1078 790 647 1043 1144 680 471 537 739 813 973 1196 1392 1304 1223 1225 1068 1072 833 603 480 363 380 429 610 629 602 650 752 992 912 970 1052 1423 1268 618 710 799 919 1002 1066 1069 978 849 766 569 559 437 395 428 563 518
1697 2039 2338 2375 2518 2767 2758 2716 2704 2588 2491 2444 2382 2303 2254 2142 2149 2190 2110 1942 1878 1769 1631 1635 1570 1546 1484 1447 1404 1297 1434 1471 1387 1247 1017 1081 1397 1178 1153 943 926 1042 1487 1452 1332 1278 1198 1136 1236 1049 1071 1025 805 708 578 450 416 480 633 645 711 615 948 1020 1194 1059 832 504 488 567 623 711 825 931 1170 913 607 394 442 453 354 382 333 328 369
1481 1946 2304 2398 2564 2779 2649 2625 2612 2570 2502 2337 2306 2254 2110 2120 2166 2164 2081 2020 1935 1809 1675 1570 1460 1483 1464 1332 1540 1636 1634 1412 1384 1327 1048 813 1391 1325 1078 1074 1084 1456 1660 1505 1305 1333 1380 1300 1238 1165 1096 1004 972 982 880 980 644 712 456 650 962 658 1105 1094 1103 538 380 366 371 494 687 708 589 642 852 868 651 443 351 470 467 407 304 335 368
1463 2059 2258 2413 2605 2554 2507 2569 2661 2564 2332 2327 2253 2197 2114 2097 2235 2239 2124 2001 1956 1866 1736 1591 1508 1472 1605 1432 1351 1567 1823 1538 1374 978 977 979 1087 1246 1054 1610 1763 1692 1572 1514 1552 1550 1285 1162 1177 1109 1064 1082 950 1025 1191 969 1059 972 801 856 1139 1046 1094 1070 777 279 255 114 91 256 462 476 167 387 498 340 232 213 171 200 243 212 256 280 271
1724 1920 2182 2440 2512 2412 2549 2602 2597 2448 2317 2326 2235 2139 2131 2155 2333 2233 2184 2003 1928 1867 1830 1716 1688 1589 1525 1606 1634 1929 1990 1740 1197 1101 1177 1151 1088 1455 1989 1950 1769 1616 1644 1590 1470 1233 1194 1178 1141 1196 1203 1109 1081 1120 1107 1306 1269 1224 1352 1048 1125 1121 949 1138 634 120 45 219 50 15 0 4 106 183 217 185 157 185 143 78 54 45 185 223 242
1514 1946 2266 2283 2384 2473 2557 2496 2464 2374 2259 2172 2186 2191 2225 2352 2429 2331 2100 2029 2007 1985 1856 1792 1889 1821 1882 1874 1866 2009 2212 1890 1630 1395 1270 1233 1346 1663 2022 1934 1734 1651 1590 1434 1405 1346 1283 1233 1159 1095 1115 1132 1193 1217 1220 1398 1337 1278 1236 1248 1217 1283 1081 1193 475 183 34 3 2 1 0 0 44 220 138 130 106 45 62 66 53 34 48 57 228
1766 2042 2076 2133 2208 2554 2402 2334 2320 2292 2228 2124 2162 2234 2345 2467 2409 2220 2145 2082 2123 2115 2021 1998 1904 1958 1980 2010 2156 2272 2288 2056 1914 1524 1304 1548 1624 1871 2018 1884 1761 1556 1468 1444 1424 1385 1397 1266 1205 1205 1197 1170 1202 1210 1247 1278 1275 1004 1348 945 1232 1059 1319 762 593 177 40 25 81 23 65 235 233 340 217 179 118 85 94 76 52 40 32 22 220
1693 1848 1987 2154 2236 2395 2513 2281 2246 2224 2168 2127 2178 2345 2427 2314 2241 2173 2146 2198 2175 2065 1988 1901 1883 1869 1957 1958 2128 2232 2014 1910 1657 1487 1476 1686 1836 1847 1951 1788 1598 1507 1531 1562 1488 1361 1277 1313 1328 1320 1250 1213 1246 1236 1319 1377 1248 1293 1438 1191 1245 1318 1410 1229 462 393 35 100 76 22 4 160 434 269 191 191 196 123 113 65 46 47 24 170 165
1478 1744 1970 2058 2036 1943 2277 2301 2319 2270 2245 2283 2322 2370 2280 2242 2198 2188 2137 2087 1985 1950 1985 1902 1881 1886 1867 1900 1957 2100 1944 1762 1848 1840 1832 1748 1866 1855 1856 1647 1526 1463 1590 1576 1469 1484 1446 1428 1374 1372 1381 1412 1428 1443 1228 1561 1389 1448 1471 1390 1483 1527 1918 1521 152 105 0 0 1 6 100 405 513 374 291 266 246 212 156 115 75 41 86 88 146
1240 1554 1799 1839 1782 1915 1903 2123 2250 2299 2329 2274 2242 2216 2196 2141 2112 2067 2029 2002 1954 2013 2018 1942 1903 1850 1806 1881 1890 1974 2002 1915 1789 1779 1833 1853 1854 1850 1697 1597 1526 1469 1562 1456 1486 1444 1501 1448 1384 1403 1439 1441 1453 1438 1495 1577 1592 1547 1544 1555 1645 1763 2244 748 366 556 318 110 126 51 33 3 130 336 211 157 129 137 108 139 104 81 95 62 115
1166 1262 1494 1623 1682 1736 1778 1941 2015 1963 1971 2110 2209 2108 2068 2004 1916 1944 1970 1991 2016 2092 2068 1949 1864 1774 1848 1875 1956 2063 2059 2091 2020 1935 1902 1810 1851 1695 1617 1580 1490 1479 1556 1395 1410 1556 1449 1377 1486 1475 1493 1489 1459 1487 1511 1618 1431 1493 1526 1719 1930 1785 1858 688 740 627 370 326 94 231 189 682 612 300 303 338 250 236 203 174 160 156 137 115 124
1295 1086 1255 1363 1553 1610 1680 1742 1683 1642 1616 1656 1750 1963 1920 1832 1919 2027 2045 2018 2023 2023 2014 1812 1768 1842 1848 1784 1719 1783 1894 1966 1986 1948 1720 1747 1728 1829 1611 1515 1485 1439 1516 1408 1265 1235 1442 1686 1718 1647 1523 1470 1561 1588 1188 1546 1411 1389 1534 1829 1989 1476 785 692 678 642 427 56 50 56 204 510 434 264 227 235 209 213 189 176 154 171 170 171 170
1365 1113 902 1055 1321 1438 1554 1516 1532 1507 1462 1558 1692 1762 1983 2062 2028 2042 1992 1978 1932 1935 1868 1911 1990 1831 1766 1677 1467 1722 1708 1738 1684 1606 1683 1669 1707 1574 1542 1509 1480 1527 1484 1409 1338 1168 1264 1254 1722 1754 1662 1585 1537 1570 1582 1576 1712 1530 1732 1719 1995 1220 670 634 684 604 158 242 203 148 432 357 232 200 196 228 204 183 190 126 197 279 225 191 168
1271 916 821 796 1134 1330 1355 1322 1390 1351 1367 1496 1580 1690 2004 2049 2025 1978 1940 1910 1961 1967 1930 2038 1968 1929 1827 1720 1521 1430 1512 1501 1470 1373 1447 1717 1622 1550 1541 1480 1375 1497 1501 1475 1341 1189 1088 1232 1120 1484 1705 1763 1637 1640 1652 1607 1662 1712 1839 1949 1598 778 616 560 430 381 197 235 227 222 331 221 208 208 225 173 124 116 187 230 206 185 128 116 74
1123 876 767 681 1075 1232 1177 1216 1192 1201 1293 1431 1534 1618 1879 1815 1662 1738 1782 1949 2024 2042 1926 1787 1907 1651 1643 1551 1352 1596 1375 1415 1309 1496 1504 1696 1518 1544 1389 1382 1363 1409 1350 1301 1240 1130 1166 996 1188 1185 1604 1678 1767 1362 1502 1569 1666 1833 1920 2033 1149 744 560 497 477 426 163 132 238 168 228 225 226 229 229 188 158 192 180 154 145 122 108 30 20
1221 932 724 830 947 940 956 1110 1109 1148 1267 1362 1484 1616 1602 1535 1586 1587 1613 1637 1961 1883 1613 1671 1492 1390 1399 1333 1337 1323 1344 1344 1264 1419 1447 1520 1572 1395 1292 1151 1331 1238 1243 1125 1141 1153 1160 1087 1013 1164 1482 1641 1764 1385 1301 1046 944 1710 1576 965 745 636 543 540 480 447 297 277 289 323 316 250 270 267 198 148 173 129 98 55 80 87 96 100 120
1307 1048 816 925 871 749 757 1016 1074 1163 1230 1328 1393 1488 1479 1506 1509 1417 1431 1427 1496 1419 1240 1292 1371 1285 1393 1310 1252 1424 1278 1269 1552 1348 1265 1418 1375 1288 1292 1216 1184 1205 1096 1198 954 1122 1091 1107 976 1313 1359 1223 1282 1412 1483 1255 945 1033 790 770 546 514 526 547 528 473 148 269 165 353 238 207 214 223 228 227 256 202 109 75 117 92 67 6 3
1377 1107 983 1049 978 928 834 872 1051 1124 1236 1319 1335 1370 1385 1393 1287 1293 1314 1325 1304 1224 958 1039 1109 1153 1319 1391 1336 1353 1215 1226 1128 1042 1160 1217 1144 1159 1118 1000 935 921 1142 753 724 515 946 658 703 1030 885 624 886 1128 1504 1341 1135 757 753 879 510 506 507 521 532 269 118 168 343 424 309 264 250 278 315 270 204 137 144 137 113 77 67 86 48
1332 1208 1047 897 1007 953 894 948 999 1076 1259 1302 1277 1324 1296 1244 1213 1206 1190 1163 1164 946 920 989 1049 1176 1362 1313 1216 1215 1174 1060 1028 1083 1113 1128 1104 1095 1027 901 762 776 1108 787 583 284 418 299 274 248 149 412 644 652 1004 1094 905 552 597 768 528 514 504 503 477 386 218 338 355 281 300 230 265 298 269 244 229 197 209 192 98 54 7 12 27
1279 1191 1018 938 843 942 914 948 924 1091 1234 1251 1197 1198 1211 1207 1164 1104 1077 1101 963 850 828 1165 1268 1364 1296 1236 1068 1054 1096 984 1022 1047 1139 1068 1026 988 1002 900 696 737 941 752 519 136 160 83 36 16 218 364 388 461 761 676 714 684 568 552 472 472 632 584 454 342 305 118 355 293 268 225 331 276 216 249 240 183 137 96 87 60 108 134 136
1275 1140 963 952 865 753 946 906 908 1108 1174 1187 1087 1103 1099 1063 1006 994 926 936 798 739 734 1092 1251 1274 1344 1076 828 943 1008 1014 1044 1064 1131 1190 1069 1045 982 878 710 642 758 504 519 200 300 242 49 12 306 372 423 382 435 480 491 485 390 453 430 548 754 668 474 400 367 116 266 419 361 544 508 232 180 230 196 173 191 198 167 159 176 135 154
1300 1211 1136 971 977 1078 983 885 926 1061 1134 1081 989 972 993 934 892 886 866 795 682 664 690 961 1179 1160 1001 808 638 833 885 1061 1100 949 918 1049 1090 1084 986 747 530 494 499 520 510 377 344 399 216 263 300 368 346 397 374 340 502 378 407 477 617 684 862 532 502 458 256 242 418 562 456 375 570 332 184 176 167 176 166 241 226 148 131 109 50
1345 1186 902 806 883 769 897 910 988 1022 1085 966 838 937 833 769 773 797 786 779 639 601 666 945 1052 1056 770 681 710 652 728 986 1114 1164 1110 808 856 826 877 596 478 129 457 394 574 434 386 925 444 382 319 358 343 258 314 342 357 359 313 417 564 781 797 596 546 494 541 630 715 669 480 608 555 348 270 242 215 194 226 215 173 117 118 69 35
1330 1126 941 969 1036 868 999 965 979 1053 1026 780 752 728 700 607 669 806 758 658 725 682 833 942 994 991 760 654 772 626 718 1234 1416 1299 1095 889 674 615 645 627 684 780 566 787 1057 1226 854 1121 1233 857 892 533 308 339 277 393 331 412 529 581 558 838 922 858 751 693 731 773 665 579 375 259 238 254 429 440 267 275 222 201 200 161 168 116 76
1383 1243 1042 830 848 955 872 964 881 866 804 712 747 767 695 690 668 772 788 701 813 680 858 924 974 939 817 595 728 633 844 1214 1120 1027 982 752 492 508 406 644 626 754 821 735 957 1034 1044 1305 1309 1380 579 376 341 370 402 347 310 412 618 450 530 827 977 1004 912 793 814 790 652 470 242 271 321 232 335 557 386 343 340 350 310 306 243 136 74
1467 1365 1241 1082 954 946 1023 1078 933 938 861 754 762 803 678 744 881 893 809 778 722 711 850 930 1036 1030 936 846 671 682 668 878 1016 829 856 707 489 577 466 600 596 531 768 808 972 1099 1249 1136 1176 1308 608 439 450 426 413 416 266 310 483 563 570 685 1009 1026 902 857 829 753 576 345 164 192 247 444 430 335 739 585 455 485 517 404 321 210 66
1602 1490 1306 1129 970 956 954 1009 1037 922 902 790 817 740 674 921 891 928 897 784 847 878 859 994 1099 1100 994 800 704 632 631 851 846 697 740 536 422 432 535 478 484 692 769 1292 1050 1029 1211 1334 1149 955 585 476 406 486 470 282 262 362 518 663 618 690 962 995 945 920 850 698 536 391 277 166 187 210 294 347 681 538 633 628 661 654 558 462 190
1747 1512 1372 1164 873 988 1084 1065 952 893 932 925 911 843 768 862 919 1010 938 893 974 952 970 1004 983 966 809 668 695 570 701 668 672 639 628 454 402 400 505 486 638 719 769 902 967 1257 918 975 1025 636 345 414 396 462 432 388 335 370 510 672 880 778 886 943 908 890 819 651 580 578 560 456 289 326 445 598 1000 830 777 581 587 608 563 520 379
1589 1504 1348 1068 1010 1135 1141 1084 1051 975 974 967 940 833 797 886 905 1034 1020 1152 1091 1088 988 1058 924 720 721 724 743 410 649 563 574 644 567 474 443 469 664 647 540 513 575 971 671 1028 877 827 803 496 136 560 597 439 357 435 633 508 598 695 1019 839 750 831 810 758 691 581 529 532 469 449 520 691 920 515 415 674 733 630 582 635 650 524 515
1396 1506 1284 1051 1105 1184 1173 1144 1154 1098 1010 932 999 831 843 958 1062 1180 1147 1217 1142 1092 1090 1052 797 566 633 701 719 575 580 582 638 702 634 453 522 596 729 636 652 658 601 749 742 720 608 811 780 564 489 571 495 347 231 554 568 572 586 858 1020 911 759 707 744 683 571 547 497 480 457 374 649 879 491 589 445 490 722 690 622 696 668 534 405
1483 1570 1322 1053 1168 1183 1176 1174 1102 1018 1034 1190 1012 873 865 957 1178 1193 1173 1157 1108 1076 1012 798 601 535 528 569 664 649 572 553 590 605 576 551 569 500 677 648 630 642 544 763 617 688 575 1088 721 645 550 548 459 382 432 695 737 690 705 855 879 838 669 515 643 622 538 452 438 428 487 488 291 320 533 560 678 628 630 713 671 704 826 641 564
1577 1582 1363 1141 1110 959 1206 1301 1032 1002 1068 1111 942 824 953 1028 1125 1128 1093 1021 938 846 780 670 590 548 555 635 773 635 572 545 682 464 520 545 419 437 462 604 593 494 754 892 833 774 960 818 748 680 662 479 408 382 514 560 572 658 673 750 747 755 687 512 425 535 543 492 448 577 573 388 307 467 528 488 477 564 599 561 367 351 476 722 662
1708 1638 1476 1135 1074 1218 1260 1125 1044 1079 1040 883 719 815 1006 1092 1155 1350 1250 1099 912 974 918 664 586 454 662 698 648 606 680 634 583 594 537 517 558 386 401 653 724 526 823 1184 730 755 752 805 717 714 627 606 445 449 525 503 538 784 661 574 519 632 642 523 475 509 535 536 499 480 501 377 345 483 469 355 285 338 384 505 515 520 612 805 856
1788 1660 1199 1048 1082 1195 1336 1021 1091 1086 1046 877 703 664 885 1113 1256 1305 1270 1150 1042 983 870 717 690 418 481 665 712 593 579 616 668 694 707 588 496 308 301 468 482 450 1005 1171 813 622 988 816 746 656 549 452 537 545 470 511 551 558 518 550 551 558 473 398 185 337 457 449 381 332 365 348 340 422 408 295 363 291 246 369 553 464 446 538 506
1750 1608 1138 1009 889 692 1037 1062 1076 940 909 841 846 837 919 1096 1188 1283 1310 1213 1055 951 908 750 637 547 521 558 590 592 540 598 551 548 735 574 514 369 380 376 622 740 1118 974 1006 658 1006 860 710 651 598 590 606 640 570 479 319 386 381 365 377 354 376 349 294 159 211 130 158 239 270 305 343 393 395 409 407 319 369 369 403 544 408 56 38
1516 1234 1020 1186 1043 597 1006 1181 894 898 868 912 997 1026 989 1122 1205 1264 1256 1171 1029 954 980 974 875 668 680 675 439 467 546 545 544 551 612 550 431 257 539 582 780 1177 1080 901 1266 778 899 788 634 609 566 567 619 607 588 510 358 328 335 290 173 142 157 304 279 132 155 183 266 298 242 340 326 323 313 300 235 206 236 169 236 429 379 58 138
1273 1096 1061 1130 938 781 732 693 883 1000 919 903 1097 1087 1023 1219 1200 1156 1049 996 888 990 1078 1017 908 594 426 483 416 480 547 454 498 457 377 452 421 438 603 845 842 1291 992 918 862 793 996 902 770 571 581 553 571 664 834 550 385 334 310 266 252 219 192 186 157 33 180 122 242 288 246 93 174 260 26 12 27 29 30 25 40 88 92 82 57
1166 1009 910 818 940 804 822 946 1011 1049 898 944 1050 1071 1208 1199 1066 935 864 766 734 1052 1090 779 540 513 518 425 403 346 385 392 474 467 444 557 400 616 876 846 1233 1280 1067 1028 839 989 1197 972 626 688 679 657 600 617 600 665 204 279 30 266 216 52 151 94 86 143 240 219 170 328 314 245 202 244 152 38 102 48 29 271 76 79 22 0 33
758 540 620 713 705 788 986 906 973 916 993 1020 1108 1096 1110 986 887 677 646 636 679 902 989 621 563 601 499 376 400 140 104 310 327 300 326 548 542 725 853 901 1292 1344 881 1185 1076 1150 1139 858 830 671 724 706 651 584 700 768 487 834 153 713 28 10 125 99 64 37 147 158 207 302 310 307 59 63 97 94 102 44 97 224 43 48 92 50 4
757 796 766 636 652 998 1016 986 943 988 914 971 983 1054 906 892 786 695 608 668 694 732 785 577 467 446 406 312 447 443 348 336 296 265 345 537 616 967 856 946 1206 1412 1225 865 734 685 913 885 957 734 710 770 699 704 694 967 874 997 736 703 668 90 75 70 97 84 149 236 229 193 226 275 273 140 83 211 121 22 23 73 118 58 15 0 0
784 852 755 830 912 919 1018 1116 1174 1145 1000 993 1025 994 943 867 792 702 595 676 697 666 632 556 466 408 386 449 488 378 314 338 386 332 342 590 808 613 805 935 1210 1155 1052 838 824 694 687 859 781 796 664 795 696 706 805 909 822 834 669 526 455 92 122 101 45 52 82 150 105 152 138 71 211 165 171 193 31 1 21 37 35 17 5 14 0
826 809 833 891 1213 1215 1128 1215 1342 1319 1170 1051 1079 971 945 838 774 716 689 714 676 742 761 760 522 402 206 450 337 318 440 447 583 482 461 612 756 852 913 1021 934 885 984 810 747 762 601 677 721 775 669 763 735 723 847 922 776 831 553 550 453 468 457 176 161 25 89 92 78 101 108 119 126 60 168 1 10 9 18 41 61 14 30 0 0
1049 1020 878 1086 1207 1206 1173 1277 1233 1280 1244 1084 1004 980 943 856 814 799 748 640 657 844 851 760 598 142 84 96 130 312 493 252 300 301 538 603 733 773 872 1040 945 1046 820 686 714 710 702 664 887 879 842 786 680 694 787 868 677 626 458 507 580 549 552 436 219 48 48 90 112 98 57 31 38 14 4 1 10 15 8 4 6 1 0 0 0
1164 1006 889 1012 1172 1216 1181 1146 1177 1202 1195 1086 994 973 969 936 911 836 714 596 708 824 751 632 377 131 84 111 131 437 219 200 285 312 468 412 474 491 562 600 607 613 662 689 888 910 880 958 1030 901 834 803 777 636 661 688 520 779 661 378 441 452 502 512 350 64 68 79 93 67 6 0 0 3 27 0 3 9 11 2 0 0 0 0 0
Wind_Speed
22 27 26 30 32 33 34 35 35 35 36 35 35 36 37 37 38 39 39 39 39 39 39 39 38 37 36 35 33 32 32 31 31 31 31 30 29 28 27 26 26 26 26 27 26 26 24 22 22 22 22 22 21 21 20 20 20 20 20 21 21 21 21 23 22 20 22 20 21 21 17 17 18 17 15 17 17 16 16 14 10 6 3 8 14
24 23 25 27 33 33 34 34 35 35 35 36 36 36 37 37 38 38 39 39 39 40 40 39 38 37 36 35 33 32 31 31 30 31 30 29 28 27 26 25 25 26 26 26 25 25 25 23 21 22 21 20 19 21 19 19 18 19 19 17 16 17 18 19 20 20 21 20 20 19 19 19 18 18 18 17 17 16 14 14 12 4 3 11 14
26 23 23 27 33 33 34 34 34 35 35 35 36 36 36 37 38 38 39 39 38 39 40 39 38 37 36 34 33 32 31 31 30 30 30 28 26 26 25 24 25 25 25 25 24 24 23 23 21 19 20 19 19 18 16 17 17 16 15 16 16 15 15 14 18 19 19 19 19 19 19 20 18 17 17 17 16 15 14 14 14 12 7 15 13
29 23 23 27 33 33 33 33 34 35 34 35 35 36 36 36 38 38 38 38 37 39 40 39 37 36 35 33 32 32 31 30 30 30 29 27 26 25 25 25 25 25 25 23 23 22 22 21 21 20 19 18 17 16 14 14 13 12 13 14 14 12 11 12 12 15 17 17 16 14 9 10 12 17 17 17 17 16 14 14 14 14 15 14 15
30 24 23 24 27 31 33 33 33 34 34 35 35 37 38 37 38 38 37 36 37 39 39 39 38 37 35 34 32 32 30 30 29 30 29 26 25 26 25 25 25 25 24 22 22 22 21 20 20 20 18 17 15 13 12 11 11 9 9 9 8 8 7 8 9 13 18 14 12 9 7 9 8 15 16 16 15 16 15 15 14 12 14 16 16
29 24 22 23 25 28 32 32 33 34 34 35 36 38 38 39 38 37 36 37 39 39 39 39 38 36 35 34 33 31 31 30 30 30 28 24 21 25 26 26 25 25 23 22 21 20 19 18 19 19 19 16 14 11 10 10 8 7 6 6 5 5 6 5 5 4 8 10 9 5 5 7 7 8 16 15 15 15 15 14 13 12 13 14 15
31 24 23 23 24 26 31 32 34 34 34 35 36 37 38 39 37 36 36 37 38 38 38 38 38 36 35 34 32 31 31 31 31 31 28 24 21 25 26 25 24 24 23 21 19 18 18 18 19 19 18 16 13 10 9 7 7 6 4 4 3 2 3 6 5 8 7 4 4 4 4 7 6 6 14 14 14 15 15 15 14 13 13 13 14
28 23 23 23 23 27 31 32 34 34 35 35 36 37 38 38 38 36 36 37 37 38 37 37 38 37 35 33 32 32 31 30 30 31 28 25 21 24 25 26 25 24 22 20 18 18 18 18 18 18 17 15 11 7 8 6 4 4 3 2 2 3 5 7 9 10 11 2 2 3 5 8 7 7 13 13 14 14 14 14 13 14 14 13 13
27 25 24 23 23 29 31 32 33 34 35 35 36 37 37 38 37 36 36 37 37 37 37 37 37 37 35 31 30 31 31 29 29 29 26 24 24 26 25 26 25 24 21 18 17 17 18 18 17 16 14 13 9 6 6 5 2 2 2 2 3 3 5 6 9 10 4 9 6 5 7 7 6 6 11 15 15 14 14 12 13 14 15 13 14
27 25 25 22 23 29 30 32 33 34 35 36 36 37 37 37 36 36 37 37 37 37 36 36 37 36 35 32 30 31 31 29 28 27 26 28 26 26 26 26 26 24 22 20 20 19 19 17 15 13 12 10 8 4 3 1 1 2 2 3 3 2 2 5 8 6 8 9 10 10 10 10 6 5 11 13 15 15 13 12 10 10 11 15 15
29 27 26 24 25 29 31 32 33 34 35 35 36 36 37 36 35 35 36 38 38 37 36 36 36 35 33 31 28 29 29 28 27 27 28 28 27 26 26 25 24 23 23 22 20 20 19 17 15 13 11 10 9 3 2 2 2 2 2 2 3 3 6 9 7 4 6 11 nan 10 11 13 6 4 11 13 14 14 15 15 15 14 15 15 16
30 29 27 24 28 30 31 32 33 33 34 34 35 35 36 35 35 35 36 38 37 36 35 34 33 34 33 30 28 28 28 27 27 27 28 28 27 28 26 25 24 25 24 22 21 20 19 18 16 14 11 10 8 2 1 2 3 2 2 2 4 6 6 7 3 6 nan 13 nan nan nan nan 6 8 14 14 15 16 15 nan nan nan 16 16 16
29 30 27 25 25 30 31 32 33 33 34 34 34 35 35 35 35 35 36 37 36 35 34 34 32 31 30 28 27 26 26 26 25 25 27 27 27 27 26 25 26 25 23 23 22 22 20 19 17 14 11 9 7 3 1 0 2 2 1 2 2 4 5 5 3 6 nan nan nan nan nan nan nan 13 14 15 16 nan nan nan nan nan nan nan 17
32 30 27 26 24 32 31 32 32 32 33 33 33 33 33 34 35 36 37 37 36 34 33 33 31 30 29 26 24 24 25 24 23 25 26 25 27 27 27 27 27 25 23 23 23 22 21 19 17 14 11 10 8 5 4 1 3 5 3 2 3 3 5 2 8 6 nan nan nan nan nan 8 9 13 15 15 16 nan nan nan nan nan nan nan 17
32 29 28 25 25 27 33 31 31 31 31 32 32 32 33 34 35 37 37 37 35 35 34 33 31 31 29 26 24 24 25 25 24 25 25 26 26 27 28 28 26 24 23 23 23 23 22 19 17 14 12 11 11 8 6 4 4 7 5 5 3 4 5 2 6 6 nan nan nan nan nan 8 14 15 16 17 16 17 17 nan nan nan nan 19 18
32 31 30 26 25 25 26 30 31 31 32 32 32 33 34 36 37 38 37 37 36 35 34 33 31 30 28 26 24 24 25 25 24 24 25 25 26 27 28 28 25 23 23 23 24 23 22 19 18 15 12 11 11 9 6 3 1 5 6 6 5 4 3 5 8 7 nan nan nan nan 8 11 16 15 17 17 18 17 17 17 nan nan nan nan 19
33 33 32 29 27 25 25 25 28 34 33 33 34 35 36 37 38 37 36 36 36 35 34 33 31 30 29 27 24 23 24 24 25 26 26 26 27 27 27 26 24 22 22 23 24 23 22 20 18 16 13 11 9 8 6 4 2 2 5 7 7 4 5 11 8 7 8 9 9 nan nan nan 14 16 17 17 18 18 18 17 17 nan nan nan 19
32 32 32 30 27 25 24 26 28 29 30 34 36 38 38 38 37 36 35 35 34 34 33 33 31 30 29 27 24 23 24 24 25 27 27 27 27 27 26 25 23 22 22 23 23 23 22 19 17 16 14 11 9 7 6 6 3 2 2 5 6 7 11 15 9 8 9 10 nan 8 8 10 14 17 18 18 18 18 18 17 17 17 17 18 18
31 32 32 29 26 25 26 26 28 30 32 32 33 38 41 40 38 37 36 35 34 34 34 32 31 30 28 27 25 25 25 25 26 26 26 27 28 26 25 23 22 22 22 22 22 22 21 19 16 15 14 12 9 6 7 6 5 5 3 4 8 10 18 12 10 10 10 nan nan nan 10 15 16 17 18 19 19 18 18 17 16 16 17 18 18
30 30 29 27 26 27 27 27 29 31 32 34 35 36 40 42 40 39 38 36 35 35 34 33 32 30 29 27 25 23 24 23 27 24 27 27 27 23 23 22 22 21 21 21 22 22 21 18 16 13 12 11 8 7 7 6 7 9 6 3 5 9 13 12 13 12 10 9 8 9 14 18 19 20 19 19 19 19 18 17 18 19 18 17 18
28 28 27 26 27 29 28 27 29 32 34 35 34 34 36 41 39 41 40 37 35 35 35 33 31 29 26 25 23 21 20 21 22 20 25 24 24 24 23 22 21 20 20 20 20 21 20 18 14 12 10 8 6 6 8 9 10 11 7 3 5 8 14 13 12 12 10 8 8 10 17 19 20 20 20 19 19 19 19 19 19 19 18 18 nan
28 26 25 26 28 27 27 27 29 32 33 32 30 30 33 36 35 36 35 35 34 33 31 29 29 25 27 23 20 20 21 20 20 23 21 23 24 24 23 21 19 19 18 18 17 18 19 16 13 11 9 8 6 7 9 10 10 10 6 3 6 10 14 13 12 11 11 9 9 11 16 18 19 20 21 20 20 20 19 20 20 20 19 nan nan
28 24 23 26 26 26 26 28 30 32 32 30 28 28 30 30 33 35 35 36 32 30 28 29 27 26 23 21 20 20 21 20 20 22 21 23 22 23 21 20 18 17 17 16 16 16 16 15 12 9 8 9 7 7 9 10 11 9 8 5 6 11 11 13 13 11 11 10 9 16 16 18 19 20 21 21 20 19 nan nan nan nan nan 20 19
27 24 24 26 27 27 27 29 31 32 31 29 28 27 27 29 29 30 30 30 30 27 26 28 27 25 23 21 22 22 21 21 22 24 23 21 19 20 19 18 17 16 14 14 13 13 13 11 9 8 7 6 7 8 9 10 11 10 9 8 6 4 9 13 13 12 11 12 12 19 19 18 18 20 21 22 22 21 21 nan 21 nan nan nan nan
27 28 28 29 30 30 30 32 31 31 31 29 27 26 26 29 29 27 25 25 25 24 26 27 26 25 24 24 23 21 22 22 20 20 21 20 17 16 15 14 13 13 14 12 12 11 11 9 7 6 5 5 7 8 10 12 13 9 10 11 9 7 11 15 15 13 13 15 17 22 21 19 19 21 22 22 22 21 21 21 21 nan nan nan nan
29 31 31 32 31 33 35 34 32 31 30 27 26 26 27 27 27 24 22 21 21 21 24 25 26 28 27 25 23 22 22 21 20 20 20 18 15 15 15 13 13 12 12 11 11 9 9 7 5 6 6 6 6 7 12 18 11 8 9 12 12 11 13 17 17 15 16 18 21 26 23 21 20 22 23 23 22 22 21 21 nan nan nan nan nan
28 31 32 34 34 36 37 34 31 29 27 24 24 24 24 23 22 19 19 20 20 20 22 23 26 27 25 23 21 20 20 21 22 18 19 16 14 14 13 12 11 11 10 9 9 8 8 nan nan nan 5 6 6 8 12 17 14 10 5 13 9 10 14 17 15 14 15 18 20 26 25 23 23 24 24 23 23 22 20 nan nan nan 19 19 20
31 33 35 37 35 33 34 34 31 28 25 23 24 23 21 19 14 16 20 21 20 20 22 23 24 25 23 20 19 18 19 21 22 18 15 13 11 12 11 11 10 10 10 8 7 7 7 6 nan nan 4 5 6 8 11 13 12 9 3 10 10 12 13 14 12 12 13 15 16 22 25 24 23 25 24 24 23 22 21 20 20 21 20 20 20
34 36 37 37 25 22 27 32 30 29 26 25 23 20 17 15 15 16 19 22 19 17 21 24 24 24 21 19 17 18 19 20 19 18 16 10 10 10 10 10 8 8 10 6 5 6 7 5 4 5 6 8 7 9 11 11 9 8 8 10 9 9 12 13 12 14 14 15 16 20 25 24 23 24 24 23 22 21 21 21 20 20 20 18 nan
36 37 31 26 27 27 31 33 30 27 26 25 23 20 17 18 18 18 19 23 20 18 21 23 22 21 19 17 17 17 18 19 18 17 16 12 13 12 12 10 7 7 9 6 3 6 7 8 6 8 10 11 10 8 9 10 10 8 7 10 8 11 12 14 14 14 15 15 16 18 24 21 23 23 21 21 21 21 20 20 20 20 19 nan nan
34 31 28 29 30 29 31 30 28 25 23 23 22 22 20 20 20 20 20 22 22 20 18 18 18 19 18 16 15 17 18 18 17 16 15 15 13 14 15 12 11 9 8 7 8 9 9 9 9 10 13 16 8 2 8 10 11 8 8 10 10 10 10 11 13 14 15 16 16 16 18 23 23 21 16 17 20 19 19 18 19 19 18 18 nan
31 32 31 32 33 32 34 30 26 25 25 24 24 23 23 23 23 23 21 21 23 20 17 15 17 18 17 15 16 18 18 17 15 14 13 14 12 14 17 15 12 12 8 9 9 8 9 8 9 10 17 14 3 6 9 11 11 7 6 10 10 10 10 11 12 13 15 15 15 14 14 16 20 18 14 15 17 17 17 17 17 18 17 16 nan
27 34 34 34 34 32 33 32 30 27 26 25 23 22 23 25 26 25 23 21 22 21 17 15 17 17 16 15 17 20 19 17 14 12 11 11 12 12 15 14 11 9 6 7 7 7 8 8 6 9 17 11 9 8 10 10 11 8 9 9 10 10 10 11 11 12 13 14 14 12 11 12 12 12 11 12 10 14 15 15 15 15 15 14 nan
27 28 33 33 32 31 31 32 30 28 27 25 23 23 24 26 27 27 25 23 20 18 17 15 17 17 17 17 18 20 19 16 12 10 10 11 13 11 11 10 9 12 8 7 6 6 6 7 6 10 16 9 10 6 8 10 8 7 9 9 9 10 10 11 10 11 12 12 10 9 10 10 10 8 7 9 10 12 12 11 12 12 13 13 13
24 26 30 32 33 32 32 30 30 29 29 27 26 26 27 27 28 27 25 22 18 16 16 17 18 18 18 17 16 18 18 15 11 9 9 11 11 9 9 8 8 12 8 11 7 7 7 8 9 15 13 10 10 10 8 8 9 9 9 9 10 10 10 11 11 10 11 9 7 7 8 8 7 7 6 5 7 8 9 10 9 10 11 12 11
24 27 28 30 32 31 32 30 29 30 28 27 27 28 28 28 27 25 23 20 17 17 20 19 18 18 19 17 16 18 16 15 11 10 11 10 11 11 10 8 12 12 7 6 5 9 7 8 12 15 13 11 12 10 9 8 8 10 7 7 8 9 10 11 11 11 11 9 6 6 6 7 7 7 5 4 5 6 9 9 8 7 7 9 10
24 29 29 29 32 31 31 30 29 29 28 27 28 27 27 28 26 22 20 18 17 18 20 19 17 18 19 18 17 18 16 13 11 12 12 12 12 12 10 9 9 10 5 2 7 7 8 7 15 13 13 11 11 12 10 8 8 9 7 6 7 9 9 10 11 10 9 8 6 5 5 6 6 5 4 5 4 4 6 8 7 7 6 7 8
22 26 28 30 32 30 27 29 30 28 28 29 29 27 26 27 24 21 19 18 17 18 17 15 14 16 18 17 16 16 15 13 12 11 12 13 11 9 9 9 10 11 7 2 11 4 7 8 15 12 12 11 13 12 10 9 8 8 9 7 6 8 8 9 10 8 8 7 7 6 6 6 4 4 5 4 3 1 4 6 8 8 9 8 7
25 27 28 31 29 25 26 30 31 28 28 31 30 28 26 24 22 20 18 18 19 18 15 13 13 15 16 16 15 13 13 14 14 11 13 12 12 10 9 7 11 10 5 5 10 9 12 11 13 12 9 11 15 11 11 12 10 9 10 8 6 6 8 8 8 8 7 8 8 7 6 6 4 5 6 3 3 1 2 5 6 7 8 7 7
30 28 30 34 26 23 26 28 28 29 31 30 28 29 25 20 18 17 18 18 18 18 15 13 13 15 15 15 14 14 13 13 14 13 14 13 13 11 9 10 9 4 2 8 10 8 11 10 14 15 14 14 16 14 15 15 12 12 13 9 5 7 9 8 7 6 6 5 5 5 5 5 4 5 5 3 2 3 2 4 5 7 8 9 11
31 30 31 35 28 27 24 24 27 30 29 29 28 26 21 18 16 14 14 15 15 15 15 13 13 14 15 14 15 16 15 14 14 13 12 11 13 12 12 11 8 4 5 7 7 8 8 10 12 14 15 15 16 13 14 16 16 13 11 10 9 6 7 8 7 6 6 5 5 5 5 6 5 4 4 3 3 3 3 3 4 5 5 6 6
29 30 32 35 35 33 21 28 28 32 31 30 26 23 18 15 14 13 13 12 13 14 14 14 15 15 16 15 14 14 15 15 14 14 12 13 12 9 11 8 4 2 7 6 9 7 7 11 12 13 13 17 15 15 14 14 11 13 13 10 10 7 5 6 7 5 5 5 4 6 6 6 5 3 2 2 3 3 3 3 4 4 4 nan nan
33 36 37 38 35 27 19 27 29 32 30 25 24 22 19 17 16 15 13 13 11 9 12 15 17 18 17 17 15 13 13 13 13 11 10 11 9 8 9 2 3 6 8 8 7 9 10 11 11 13 15 13 15 12 11 10 12 12 12 12 8 7 5 5 6 5 4 4 3 6 5 3 3 2 1 1 1 2 2 2 3 3 4 nan 4
38 38 36 34 31 26 23 29 24 26 29 24 22 20 18 19 20 18 16 15 11 10 14 16 18 19 16 15 14 12 11 10 8 7 9 11 10 7 5 3 4 7 7 6 8 9 10 10 10 13 16 16 13 10 8 9 12 14 10 7 7 6 9 6 8 nan 4 4 4 4 4 nan 3 2 nan nan nan nan nan nan nan nan nan nan nan
39 36 29 24 24 24 21 26 25 25 24 19 17 17 19 22 24 22 19 18 15 14 16 15 15 16 16 14 13 10 9 9 8 7 10 11 10 6 6 7 8 7 7 8 8 9 9 9 11 14 15 15 14 11 8 9 12 8 nan 11 8 nan 4 nan nan 8 6 5 4 5 5 6 4 2 3 nan 2 nan nan 2 nan nan nan nan nan
38 38 36 33 30 26 22 26 25 24 21 16 14 14 13 16 18 18 15 12 13 13 15 17 15 16 16 14 13 10 11 12 11 10 11 11 9 7 9 10 9 9 8 8 10 9 9 9 11 13 15 14 14 13 11 9 10 8 9 8 nan nan 10 nan nan nan 7 7 7 6 5 4 nan nan nan nan 3 nan nan 3 nan nan nan nan nan
33 37 38 36 32 27 23 23 24 24 24 18 15 14 13 13 15 13 11 12 14 12 13 14 15 15 16 13 11 12 13 12 10 9 9 9 10 10 12 11 11 10 10 11 10 6 7 9 12 14 13 14 14 12 12 10 9 9 10 8 7 nan nan nan nan nan 10 7 7 6 6 5 6 6 nan 3 3 nan nan nan 2 nan nan nan nan
32 34 37 37 34 30 26 23 21 23 23 22 21 18 17 16 16 12 12 12 13 15 15 14 14 15 14 10 11 11 10 10 10 10 12 12 13 14 14 13 12 12 10 8 9 8 10 11 11 13 12 13 12 13 10 10 11 9 10 11 11 nan 11 7 nan nan nan 11 9 8 7 nan 5 3 3 3 nan nan nan nan nan nan nan nan nan
30 33 36 36 35 31 28 25 22 22 21 22 22 21 20 20 18 17 16 14 15 15 15 12 13 13 13 10 10 10 10 12 15 16 15 14 15 16 15 13 12 10 9 12 10 11 12 12 12 14 12 11 12 11 11 9 9 10 12 12 12 11 10 11 10 nan nan nan nan 8 7 5 4 nan 2 nan nan nan nan nan nan nan nan nan nan
29 33 34 34 34 32 29 25 21 20 20 20 18 20 22 20 17 17 19 18 17 17 15 12 12 13 nan nan 12 14 14 15 17 16 15 15 17 17 16 14 11 11 13 12 13 13 13 12 13 13 13 13 12 12 11 9 10 10 11 11 11 10 12 10 11 nan nan nan 12 nan nan nan nan nan nan nan nan nan nan nan nan nan nan nan nan
29 34 34 33 32 32 32 28 22 20 20 22 20 17 20 22 18 17 19 19 17 18 17 15 15 16 nan 16 17 18 18 18 18 17 16 16 18 18 18 15 14 15 15 15 15 14 13 13 13 14 13 14 12 12 12 11 11 12 12 12 12 12 12 11 12 nan nan nan nan nan nan nan nan nan nan nan nan nan nan nan nan nan nan nan nan
Wind_Direction
297 302 298 298 294 293 292 292 291 290 291 291 292 294 296 297 298 300 301 302 301 300 301 302 303 302 302 302 301 300 300 299 299 299 299 298 297 297 298 299 297 296 295 294 295 295 296 297 297 297 293 289 280 276 278 279 280 283 285 284 281 278 274 276 281 277 270 266 261 256 254 255 253 250 247 248 250 253 252 254 258 254 251 266 269
305 301 294 296 293 290 289 289 290 289 289 290 292 293 294 295 297 299 301 301 300 300 302 304 304 304 304 304 303 303 302 301 301 300 301 299 298 299 299 298 299 299 298 296 295 297 296 295 296 297 294 288 288 287 280 282 285 290 289 289 287 285 282 278 270 265 261 258 253 246 245 244 244 244 242 242 246 249 250 253 256 268 295 264 265
299 297 293 295 293 289 287 288 289 288 288 290 292 293 293 294 297 299 300 299 299 301 303 305 305 305 306 305 305 304 303 303 302 302 302 302 302 300 301 299 298 301 301 298 298 296 294 293 293 296 293 291 288 287 283 285 291 292 290 289 290 291 287 280 280 274 269 263 254 246 239 238 240 243 244 243 244 245 247 250 250 251 251 256 262
297 294 292 295 292 290 286 287 286 287 288 289 291 292 293 294 297 298 298 298 299 303 305 306 306 307 308 307 306 305 304 305 305 304 302 302 304 303 302 304 303 304 303 302 300 297 294 292 290 291 294 290 289 287 284 287 287 289 296 301 300 296 287 280 279 277 268 260 256 253 222 213 224 237 240 241 244 247 247 248 249 253 252 252 254
291 290 288 287 284 286 285 285 285 286 287 289 291 293 294 295 296 295 297 298 301 304 306 306 306 308 308 308 307 306 306 306 306 306 304 305 309 310 307 304 306 305 305 305 303 301 295 291 289 291 291 292 291 290 292 291 293 294 296 296 286 280 276 280 277 274 267 245 246 226 237 226 214 234 240 243 242 243 246 249 251 256 255 253 250
286 286 283 280 280 282 284 284 285 287 288 290 292 293 294 295 295 294 297 300 303 305 306 306 306 307 308 309 308 307 307 307 308 307 308 309 312 311 309 308 309 309 308 306 304 302 298 293 290 288 289 291 294 298 299 300 306 302 269 267 263 251 258 230 231 231 171 191 204 200 217 243 214 219 243 242 244 245 248 250 250 253 251 252 251
285 284 280 277 276 280 284 284 285 287 288 290 291 292 294 294 293 294 298 301 303 305 306 305 306 307 307 309 309 309 308 310 312 312 312 316 318 309 307 311 311 310 309 306 307 305 301 296 292 290 288 289 294 302 312 319 312 285 275 269 264 233 237 200 181 164 152 204 190 206 205 239 231 216 247 247 247 245 246 250 251 252 255 257 257
282 282 277 274 274 281 283 284 286 286 289 290 291 292 293 293 294 296 299 302 303 304 305 306 306 307 308 311 312 310 310 313 315 314 316 319 321 310 313 313 314 313 310 308 308 306 300 294 290 289 288 289 297 311 326 335 308 283 254 240 220 200 182 185 174 154 143 126 294 238 233 232 217 214 249 253 248 245 244 244 248 256 258 255 258
284 281 274 273 275 282 282 283 285 288 290 291 291 291 293 294 296 298 300 302 303 305 306 306 306 307 308 311 310 308 311 316 318 317 318 320 315 311 315 316 316 311 310 316 314 306 297 294 289 287 290 292 299 326 344 337 270 249 221 222 208 204 187 174 159 162 190 270 279 257 245 235 224 223 248 249 246 244 242 234 243 251 255 258 260
283 275 273 271 274 280 281 284 286 289 291 292 291 292 294 296 297 298 300 302 304 305 306 306 306 307 308 310 310 310 312 317 318 318 318 316 313 315 317 319 315 314 315 315 309 300 293 288 288 291 292 299 314 335 10 354 194 188 186 212 207 191 187 159 189 233 259 259 256 245 240 243 217 216 244 249 254 253 255 260 255 249 251 255 254
277 273 272 274 276 280 283 286 287 289 291 291 291 292 294 296 296 297 299 302 304 304 305 306 306 306 307 309 308 310 312 316 316 317 317 316 314 316 316 310 313 314 313 307 302 297 295 294 293 294 296 310 324 342 47 30 110 119 152 175 166 171 185 183 203 234 255 251 nan 241 249 248 219 206 254 255 253 253 255 252 250 250 251 252 252
273 273 273 275 282 280 284 286 287 288 290 289 290 293 295 295 294 296 298 300 302 303 303 303 304 305 307 307 307 309 311 314 315 315 315 315 315 312 311 312 312 309 307 303 300 298 296 295 292 293 295 308 319 310 52 44 88 77 114 139 176 177 177 171 212 268 nan 255 nan nan nan nan 225 246 258 257 254 254 251 nan nan nan 251 255 255
271 273 275 275 276 282 282 284 286 287 288 289 291 293 294 294 294 295 297 298 300 301 301 302 302 304 305 305 306 309 309 310 312 313 314 316 314 312 310 311 309 309 305 303 301 300 297 295 295 294 290 294 303 304 319 48 52 27 86 124 154 150 146 165 272 276 nan nan nan nan nan nan nan 256 257 260 260 nan nan nan nan nan nan nan 249
272 274 275 275 277 283 279 280 282 285 288 290 291 292 293 293 293 294 295 297 298 297 296 297 298 298 299 301 303 306 307 308 309 313 315 313 312 312 309 309 309 306 303 300 299 298 296 297 297 296 287 277 275 282 276 253 16 32 77 113 88 105 135 101 300 290 nan nan nan nan nan 244 252 258 261 261 257 nan nan nan nan nan nan nan 254
279 280 277 276 276 277 281 277 279 283 285 286 288 289 290 291 291 293 295 295 294 292 292 292 292 294 297 298 299 300 304 307 312 313 314 311 310 309 308 308 307 303 300 298 297 296 296 298 299 298 293 279 272 274 283 318 25 48 85 129 122 114 140 53 310 295 nan nan nan nan nan 270 260 257 259 259 260 257 255 nan nan nan nan 253 253
281 283 281 279 278 276 275 282 283 284 285 285 286 288 289 289 291 292 292 290 289 289 288 288 288 291 293 292 296 298 304 308 310 309 308 310 306 308 307 306 305 302 297 297 296 296 296 296 298 297 293 284 276 274 289 310 9 67 75 110 114 100 116 306 306 290 nan nan nan nan 251 261 267 268 264 263 261 264 263 261 nan nan nan nan 257
281 284 286 286 284 281 282 283 285 289 286 285 285 286 286 287 289 289 288 288 289 288 287 287 287 288 289 291 294 298 301 303 305 305 305 306 305 306 306 304 303 301 297 299 298 296 297 297 299 299 297 294 283 281 280 268 251 75 77 107 126 143 233 305 312 304 292 285 276 nan nan nan 274 271 269 267 263 259 260 259 256 nan nan nan 256
284 287 288 290 289 288 289 290 288 285 283 284 284 284 283 284 286 286 287 287 287 286 286 286 287 288 290 293 293 295 296 297 301 303 304 304 303 304 305 305 302 300 301 300 299 297 297 295 297 302 307 307 300 289 265 256 282 328 103 127 147 194 270 295 305 294 288 284 nan 277 274 272 269 267 266 265 266 264 262 263 265 264 260 257 256
287 289 290 290 289 290 291 286 283 283 282 280 280 283 286 287 286 286 286 286 287 287 286 288 288 286 289 292 295 295 295 296 297 299 303 302 303 303 306 305 301 302 303 302 299 299 296 295 296 304 314 319 310 293 265 271 301 300 282 177 183 233 286 300 302 299 299 nan nan nan 284 281 279 276 270 267 267 268 267 264 261 263 263 262 259
287 290 289 288 289 291 287 284 282 282 280 280 282 285 289 289 288 288 288 289 290 287 287 286 287 287 290 292 295 292 293 295 300 300 301 300 300 303 305 300 301 302 303 303 301 298 297 295 298 306 318 325 321 298 270 276 283 287 287 227 212 261 296 308 306 307 313 306 300 291 290 284 281 278 279 276 272 269 269 269 264 260 260 260 259
284 287 286 286 288 291 291 287 286 284 282 282 284 286 287 288 287 290 290 290 287 285 287 285 282 283 283 286 284 281 283 287 292 293 299 294 300 303 301 299 300 302 302 300 299 298 297 296 299 306 316 322 312 284 270 265 262 276 288 292 288 299 305 311 313 316 312 310 305 299 294 288 284 284 281 280 277 274 268 265 262 266 264 258 nan
286 283 283 287 290 292 292 285 282 283 283 284 285 285 284 285 282 281 279 279 280 281 279 277 278 273 284 280 278 282 283 286 291 295 288 297 299 302 298 295 298 297 294 294 297 296 293 297 299 306 319 319 321 297 281 273 269 275 277 249 343 314 311 313 313 311 308 310 305 298 287 284 284 284 282 278 275 269 266 263 263 262 259 nan nan
285 284 286 290 288 287 285 282 283 283 286 287 287 288 290 288 286 283 279 277 273 273 273 275 271 274 275 277 274 275 282 288 288 292 289 295 296 301 297 298 297 295 292 293 292 292 291 293 302 304 313 319 313 304 290 289 286 280 278 335 334 309 308 308 305 307 308 310 309 303 298 290 287 280 277 275 275 275 nan nan nan nan nan 257 254
290 288 285 283 285 283 283 281 282 285 287 289 293 294 292 290 287 286 286 280 273 272 271 272 273 272 276 272 271 272 277 285 293 300 295 287 287 294 296 297 298 293 295 288 289 285 288 289 292 306 302 313 317 302 300 294 295 291 321 318 301 296 302 300 304 309 309 306 305 299 290 288 286 285 283 280 274 271 272 nan 263 nan nan nan nan
282 274 274 279 277 278 277 275 279 285 288 291 295 295 292 291 289 290 293 286 278 274 269 269 271 271 269 267 268 271 277 280 281 277 277 281 274 274 280 280 279 286 290 281 279 275 279 275 281 281 296 312 302 301 302 292 278 330 333 322 284 269 291 295 303 304 297 299 300 300 301 301 295 285 280 278 275 271 267 265 264 nan nan nan nan
267 271 276 274 273 273 274 273 276 281 287 295 298 294 290 287 286 289 291 287 282 276 269 267 266 266 264 265 268 270 274 276 275 275 274 277 274 274 282 281 285 288 285 281 280 272 274 271 279 297 322 307 311 304 306 293 327 5 335 301 286 273 285 288 297 297 289 293 292 292 296 297 296 291 285 281 279 274 268 267 nan nan nan nan nan
267 270 273 269 268 268 270 273 277 282 286 293 288 283 283 279 280 289 290 284 273 271 274 273 265 262 262 265 271 272 271 276 275 267 276 272 270 278 282 283 286 286 283 280 275 278 278 nan nan nan 294 298 291 294 297 308 348 354 341 301 307 305 300 295 299 300 289 291 293 293 296 302 302 295 288 286 281 277 274 nan nan nan 266 261 257
268 273 268 265 262 267 274 279 284 288 289 292 288 284 280 280 283 284 286 283 278 270 272 276 270 266 265 265 268 270 273 276 278 274 262 262 268 277 277 280 290 291 278 280 269 271 280 278 nan nan 271 274 284 298 302 316 334 334 315 288 319 335 309 304 305 304 298 298 303 299 298 301 300 295 291 288 287 283 279 275 273 268 263 259 256
270 265 259 261 271 283 291 294 296 297 294 290 286 283 278 275 276 287 284 278 279 276 273 276 274 268 263 264 268 271 270 272 272 273 275 261 254 266 271 280 286 286 278 276 277 281 283 286 291 288 295 268 271 275 289 316 297 290 299 287 314 315 305 316 312 311 313 309 308 306 302 301 298 294 291 286 284 284 280 274 268 266 265 262 nan
259 263 281 299 304 298 291 292 295 299 297 290 286 284 281 276 281 285 278 273 273 272 272 277 274 268 261 264 268 271 273 270 262 266 272 262 251 245 244 256 284 283 275 286 279 287 281 254 254 254 250 247 233 291 313 292 276 282 296 293 316 311 319 323 318 317 315 308 308 307 308 302 296 294 291 287 282 277 276 278 276 270 268 nan nan
277 288 291 284 282 285 288 290 288 289 293 295 292 287 284 282 281 278 273 272 269 269 270 270 268 265 264 267 271 274 272 263 260 266 266 265 258 241 224 232 237 235 273 257 249 257 253 249 256 262 260 251 257 298 283 277 287 299 318 307 308 308 310 318 318 317 312 311 312 315 313 310 304 301 293 280 278 277 277 273 268 266 266 263 nan
289 289 286 287 292 297 294 298 297 294 292 296 296 291 286 284 281 279 278 274 270 269 270 268 262 262 265 270 274 274 267 257 262 266 271 262 250 227 223 230 230 221 214 256 242 242 239 250 248 266 266 267 279 228 243 277 273 290 300 289 296 301 303 309 311 311 312 316 318 315 312 316 316 311 294 280 282 284 280 273 266 263 263 262 nan
282 291 291 293 296 293 292 294 295 295 292 293 295 291 284 281 281 280 279 275 269 264 267 272 267 259 266 273 274 272 264 260 262 267 273 252 226 227 227 226 225 220 203 254 255 240 237 245 254 259 263 259 243 227 246 251 272 273 283 297 301 301 306 302 303 310 319 322 322 317 314 324 327 322 315 305 296 279 272 267 264 265 264 265 nan
275 282 286 292 292 286 289 290 295 293 291 288 287 287 285 283 283 279 275 272 269 264 270 270 269 263 270 276 280 283 272 259 264 268 264 234 221 228 222 221 209 209 203 223 249 254 250 255 244 245 260 270 264 264 267 272 278 295 288 290 292 310 312 300 305 319 326 324 324 321 324 330 328 331 332 311 278 275 268 262 260 259 263 265 270
278 282 289 291 291 289 288 291 296 292 289 288 286 283 282 284 284 279 275 275 273 267 264 263 267 267 271 278 286 281 270 263 266 268 253 241 237 221 222 228 221 210 222 211 197 255 245 240 231 241 269 262 260 252 255 274 287 283 281 292 303 315 306 306 313 324 335 332 321 332 333 335 337 331 314 296 289 269 264 262 256 255 263 269 276
287 286 287 290 293 292 290 291 293 289 287 287 282 280 280 280 280 273 270 270 266 264 264 265 267 268 269 274 276 275 271 269 271 257 240 234 227 214 217 225 218 218 174 236 188 259 241 239 231 252 257 260 262 255 252 263 271 282 284 290 302 305 304 309 320 335 346 335 329 342 331 328 333 332 322 309 287 262 255 256 256 252 258 275 280
286 292 295 294 292 290 289 287 288 285 282 276 273 273 273 275 272 263 262 261 261 264 264 263 264 270 272 271 267 271 271 270 264 256 250 224 208 216 223 231 217 208 143 249 245 232 259 236 241 236 260 266 273 270 258 252 258 281 276 285 298 295 295 313 324 342 352 343 346 348 327 339 348 327 353 341 318 265 249 263 264 243 234 257 274
290 292 297 294 287 280 284 286 278 274 271 268 267 265 265 266 259 251 253 257 262 269 268 265 271 277 276 273 269 271 281 279 266 255 246 214 212 227 227 220 213 205 164 110 266 287 262 229 253 244 257 272 274 276 280 271 263 272 275 283 281 281 295 308 324 341 343 358 1 351 339 344 350 355 343 341 355 290 224 241 249 233 225 219 244
299 297 294 278 278 289 290 286 275 268 264 265 265 262 258 253 249 248 253 257 265 273 272 272 279 277 274 276 278 278 281 279 271 259 239 216 223 233 232 221 215 204 107 225 236 238 239 226 256 269 261 274 285 286 280 277 264 272 280 263 246 280 297 307 322 328 349 1 352 336 331 344 346 352 356 16 48 38 184 198 201 198 202 228 249
298 292 292 277 281 276 280 279 281 276 266 262 259 259 254 249 252 251 253 258 265 270 271 278 280 277 275 277 284 286 279 282 274 247 229 225 234 229 218 216 209 165 136 230 235 238 247 249 259 270 269 266 277 293 291 289 280 282 282 277 286 286 290 307 315 323 338 341 331 345 353 359 344 348 3 33 25 46 124 151 176 187 191 214 232
296 294 287 279 283 277 272 283 285 275 268 267 259 249 252 252 250 259 263 261 267 271 279 286 284 280 280 279 284 283 284 283 269 248 239 236 231 229 223 209 172 135 214 227 250 236 234 252 259 269 278 278 280 287 294 294 289 273 269 269 257 257 285 305 311 307 311 331 344 342 355 341 339 332 346 18 45 64 107 141 156 164 181 200 210
289 287 280 263 261 265 266 291 285 274 262 262 263 265 261 266 263 263 258 264 271 280 288 292 290 285 282 281 280 280 284 281 262 251 252 242 231 236 237 224 138 113 223 223 232 262 245 253 257 265 272 283 286 301 305 295 273 292 295 286 269 261 275 288 289 296 311 322 317 316 323 328 332 332 338 31 71 80 110 138 144 154 155 nan nan
270 263 258 256 259 273 278 272 270 264 259 259 256 252 254 260 252 247 259 252 249 266 283 288 288 287 284 283 285 289 286 273 265 267 268 251 243 246 249 252 73 223 229 223 229 257 255 264 267 273 271 267 277 292 309 279 288 287 288 284 295 294 311 300 292 280 286 298 289 298 304 310 329 313 304 16 44 101 132 141 153 157 169 nan 163
250 254 259 259 266 266 272 273 268 258 262 258 253 251 251 251 246 245 250 245 252 251 267 277 280 284 288 287 290 296 287 269 268 284 263 268 265 267 274 275 231 232 245 239 241 249 254 260 269 271 280 278 277 286 280 287 291 301 296 291 315 302 305 315 302 nan 285 273 263 273 289 nan 308 286 nan nan nan nan nan nan nan nan nan nan nan
266 270 291 294 281 283 264 266 274 269 268 267 257 253 250 248 246 245 248 248 248 261 273 282 290 292 291 294 299 292 281 267 268 280 283 289 289 293 273 255 240 238 243 247 253 259 259 268 269 276 284 285 282 275 274 285 304 292 nan 285 282 nan 323 nan nan 287 294 272 248 268 283 289 292 275 287 nan 280 nan nan 221 nan nan nan nan nan
280 284 294 307 310 300 288 281 284 277 272 269 266 269 265 267 265 264 266 264 285 290 300 306 299 298 302 296 287 280 270 266 271 288 295 293 300 302 277 264 250 251 250 250 246 247 265 271 270 273 269 274 284 283 282 288 305 283 293 296 nan nan 317 nan nan nan 285 276 284 267 276 271 nan nan nan nan 289 nan nan 255 nan nan nan nan nan
283 283 284 286 291 301 293 282 275 271 279 287 292 292 293 294 296 286 282 292 298 298 295 298 296 290 287 291 285 272 269 269 276 291 295 297 303 286 271 262 252 249 241 251 262 265 277 274 266 264 270 274 280 285 295 293 275 266 269 270 276 nan nan nan nan nan 294 278 265 261 261 255 257 264 nan 286 296 nan nan nan 276 nan nan nan nan
284 285 283 281 285 292 288 285 282 281 288 296 305 308 310 307 299 285 277 287 294 297 300 299 283 280 283 282 272 274 270 259 267 285 295 295 287 276 267 259 252 250 239 271 276 288 274 258 260 267 267 276 285 292 292 292 293 277 272 268 270 nan 303 278 nan nan nan 292 277 259 254 nan 259 274 293 313 nan nan nan nan nan nan nan nan nan
283 284 288 289 285 285 287 287 293 296 294 297 300 310 310 308 301 290 288 286 281 278 286 284 278 275 277 268 263 262 261 259 270 281 284 281 278 272 266 260 257 262 257 253 255 258 264 270 257 261 267 274 281 284 285 297 284 283 272 263 269 277 279 288 288 nan nan nan nan 277 275 251 242 nan 284 nan nan nan nan nan nan nan nan nan nan
281 279 285 289 291 290 290 289 293 297 301 299 302 315 321 315 305 293 290 284 275 272 274 277 271 275 nan nan 262 256 262 264 263 272 275 275 272 271 267 266 259 259 256 254 252 253 257 255 257 261 269 273 272 281 289 289 283 283 280 287 279 275 273 273 277 nan nan nan 292 nan nan nan nan nan nan nan nan nan nan nan nan nan nan nan nan
286 289 290 293 295 295 295 294 299 290 295 305 300 306 316 319 317 310 298 289 283 275 270 265 263 265 nan 267 262 257 264 264 263 265 273 270 265 265 261 258 249 254 254 256 255 260 255 251 251 260 266 274 278 280 280 278 282 283 284 290 295 301 302 297 302 nan nan nan nan nan nan nan nan nan nan nan nan nan nan nan nan nan nan nan nan